Location: Mizzole
(45.4833°N, 11.0500°E)
Time: 06:07:33
(UTC+00:00)

Cosmos 2278 Rocket - Pass Details

Date: 21 October 2019
Orbit: 840 x 846 km, 71.0° (Epoch: 18 November)

Event Time Altitude Azimuth Distance (km) Brightness Sun altitude
Rises 16:53:44 0° 188° (S) 3,388 5.6 -6.5°
Reaches altitude 10° 16:56:13 10° 183° (S) 2,459 4.8 -6.9°
Maximum altitude 17:01:39 51° 109° (ESE) 1,061 2.4 -7.9°
Drops below altitude 10° 17:07:08 10° 35° (NE) 2,478 4.3 -8.8°
Sets 17:09:38 0° 31° (NNE) 3,418 5.0 -9.3°
